Hourly Data Report for October 13, 2014

All times are specified in Local Standard Time (LST). Add 1 hour to adjust for Daylight Saving Time where and when it is observed.

MONCTON INTL A
NEW BRUNSWICK

46°06'44.000" N
64°40'43.000" W
70.70 m
8103201
71705
YQM

Download Data

Hourly Data (October 2014)
Hourly Data Report for October 13, 2014
Temp Definition
°C
Dew Point Temp Definition
°C
Rel Hum Definition
%
Wind Dir Definition
10's deg

Wind Spd Definition
km/h
Visibility Definition
km
Stn Press Definition
kPa
Hmdx Definition


Wind Chill Definition


Weather Definition


TIME
00:00 Legend Double Dagger 3.5 0.0 78 24 16 24.1 101.47     LegendNANA
01:00 Legend Double Dagger 2.4 -0.4 82 25 14 24.1 101.47     LegendNANA
02:00 Legend Double Dagger 2.0 -0.1 86 24 15 24.1 101.48     Clear
03:00 Legend Double Dagger 1.6 -0.5 86 22 15 24.1 101.49     LegendNANA
04:00 Legend Double Dagger 1.6 -0.5 86 25 14 24.1 101.51     LegendNANA
05:00 Legend Double Dagger 0.7 -0.9 89 22 12 24.1 101.57     Clear
06:00 Legend Double Dagger 0.5 -1.0 90 22 11 24.1 101.60     LegendNANA
07:00 Legend Double Dagger 0.7 -0.6 91 22 13 24.1 101.61     LegendNANA
08:00 Legend Double Dagger 3.5 0.9 83 23 17 24.1 101.63     Clear
09:00 Legend Double Dagger 7.3 2.0 69 23 21 24.1 101.64     LegendNANA
10:00 Legend Double Dagger 10.6 3.0 59 23 22 24.1 101.61     LegendNANA
11:00 Legend Double Dagger 13.0 2.9 50 24 24 24.1 101.59     Clear
12:00 Legend Double Dagger 14.6 2.2 43 23 22 24.1 101.55     LegendNANA
13:00 Legend Double Dagger 15.5 2.4 41 23 26 24.1 101.48     LegendNANA
14:00 Legend Double Dagger 16.5 3.0 40 24 25 24.1 101.43     Clear
15:00 Legend Double Dagger 16.9 2.6 38 24 25 24.1 101.42     LegendNANA
16:00 Legend Double Dagger 16.6 3.1 40 22 20 24.1 101.40     LegendNANA
17:00 Legend Double Dagger 15.2 3.1 44 22 17 24.1 101.40     Clear
18:00 Legend Double Dagger 12.9 3.9 54 22 19 24.1 101.39     LegendNANA
19:00 Legend Double Dagger 10.8 5.2 68 22 17 24.1 101.40     LegendNANA
20:00 Legend Double Dagger 9.4 6.3 81 21 16 24.1 101.43     Clear
21:00 Legend Double Dagger 9.0 6.5 84 21 16 24.1 101.42     LegendNANA
22:00 Legend Double Dagger 8.0 5.5 84 21 14 24.1 101.41     LegendNANA
23:00 Legend Double Dagger 7.5 5.3 86 23 15 24.1 101.42     Clear

Notes on Data Quality.

Legend

  • E = Estimated
  • M = Missing
  • NA = Not Available
  • ‡ = Partner data that is not subject to review by the National Climate Archives
Date modified: